Nagpur Sonegaon, India

2:00 PM IST on February 26, 2017 (GMT +0530)
Nagpur

Weather History for VANP - March, 2013

Change the Weather History Date:

Tuesday, March 5, 2013

  Actual Average Record
Temperature  
Mean Temperature 76 °F -  
Max Temperature 98 °F 98 °F - ()
Min Temperature 54 °F 68 °F - ()
Cooling Degree Days 11    
Growing Degree Days 26 (Base 50)    
Moisture  
Dew Point 39 °F    
Average Humidity 25    
Maximum Humidity 58    
Minimum Humidity 6    
Precipitation  
Precipitation 0.00 in 0.02 in - ()
Sea Level Pressure  
Sea Level Pressure 29.97 in    
Wind  
Wind Speed 2 mph ()    
Max Wind Speed 6 mph    
Max Gust Speed -    
Visibility 2.9 miles    
Events      
T = Trace of Precipitation, MM = Missing Value Source: Averaged Metar Reports

Daily Weather History Graph

Daily Weather History Graph

Search for Another Location

Airport or City:

Trip Planner

Search our weather history database for the weather conditions in past years. The results will help you decide how hot, cold, wet, or windy it might be!

Date:

Astronomy

Mar. 05, 2013 Rise Set
Actual Time 6:31 AM IST 6:19 PM IST
Civil Twilight 6:08 AM IST 6:41 PM IST
Nautical Twilight 5:43 AM IST 7:07 PM IST
Astronomical Twilight 5:17 AM IST 7:33 PM IST
Moon 12:43 AM IST (3/5) 12:02 PM IST (3/5)
Length of Visible Light 12h 33m
Length of Day
11h 48m
Last Quarter, 46% of the Moon is Illuminated
Mar 5
Last Quarter
Mar 12
New
Mar 19
First Quarter
Mar 27
Full
Apr 3
Last Quarter

Hourly Weather History & Observations

Time (IST) Temp. Dew Point Humidity Pressure Visibility Wind Dir Wind Speed Gust Speed Precip Events Conditions
12:10 AM 73.4 °F 41.0 °F 31% 29.98 in 3.1 mi NNW 2.3 mph - N/A   Haze
1:10 AM 73.4 °F 39.2 °F 29% 29.98 in 3.1 mi North 3.5 mph - N/A   Haze
2:10 AM 73.4 °F 37.4 °F 27% 29.98 in 3.1 mi NNE 3.5 mph - N/A   Haze
2:30 AM 60 °F 47 °F 53% 29.96 in 2 mi Calm Calm - -   Haze
3:10 AM 64.4 °F 39.2 °F 40% 29.98 in - Calm Calm - N/A   Haze
4:10 AM 64.4 °F 37.4 °F 37% 29.95 in - Calm Calm - N/A   Haze
5:30 AM 57 °F 46 °F 58% 29.98 in 2 mi Calm Calm - -   Haze
6:10 AM 68.0 °F 37.4 °F 33% 29.98 in 3.1 mi Calm Calm - N/A   Haze
7:10 AM 64.4 °F 37.4 °F 37% 30.01 in 2.5 mi Calm Calm - N/A   Haze
8:30 AM 74 °F 42 °F 21% 30.03 in 2 mi NE 5.8 mph - -  
9:10 AM 77.0 °F 41.0 °F 28% 30.06 in 3.7 mi NE 3.5 mph - N/A   Unknown
11:10 AM 87.8 °F 41.0 °F 19% 30.04 in 3.7 mi East 5.8 mph - N/A   Unknown
11:30 AM 89 °F 46 °F 14% 29.99 in 2 mi NE 5.8 mph - -   Clear
1:10 PM 95.0 °F 41.0 °F 15% 29.98 in 3.7 mi ENE 4.6 mph - N/A   Unknown
2:30 PM 95 °F 36 °F 6% 29.88 in 2 mi East 3.5 mph - -  
3:10 PM 98.6 °F 33.8 °F 10% 29.92 in 3.7 mi East 5.8 mph - N/A   Unknown
4:10 PM 98.6 °F 35.6 °F 11% 29.92 in 3.7 mi ENE 3.5 mph - N/A   Unknown
5:10 PM 96.8 °F 35.6 °F 12% 29.92 in - East 3.5 mph - N/A   Unknown
6:10 PM 95.0 °F 37.4 °F 13% 29.92 in 3.1 mi East 4.6 mph - N/A   Haze
8:10 PM 80.6 °F 33.8 °F 18% 29.95 in 3.1 mi Calm Calm - N/A   Haze
8:30 PM 72 °F 35 °F 16% 29.94 in 2 mi Calm Calm - -   Haze
9:10 PM 78.8 °F 33.8 °F 20% 29.98 in 3.1 mi Calm Calm - N/A   Haze
10:10 PM 75.2 °F 37.4 °F 25% 30.01 in 3.1 mi Calm Calm - N/A   Haze
11:10 PM 77.0 °F 41.0 °F 28% 29.98 in 3.1 mi Calm Calm - N/A   Haze
11:30 PM 67 °F 46 °F 35% 29.97 in 2 mi Calm Calm - -